CAPE
0 0 0 0 0 0 0 0 0 0 0 0 0 0 0 0 0 0 0 0 0 0 11 54 48 4 0 0 0 0 0 11 0 13 0 0 0 0 0 0 0 0 0
0 0 0 0 0 0 0 0 0 0 0 0 0 0 0 0 0 0 0 0 0 4 18 25 27 13 10 0 0 0 19 6 9 42 20 5 0 0 0 0 0 0 0
0 0 0 0 0 0 0 0 0 0 0 0 0 0 0 0 0 0 0 0 0 0 0 0 0 0 0 8 1 3 21 21 22 42 40 24 21 1 0 0 0 0 0
0 0 0 0 0 0 0 0 0 0 0 0 0 0 0 0 0 0 0 0 0 0 0 0 0 0 0 0 0 3 2 6 11 22 36 21 4 0 0 0 0 1 0
0 0 0 0 0 0 0 0 0 0 0 0 0 0 0 0 0 0 0 0 0 0 0 0 0 0 0 0 0 0 0 1 4 8 12 1 4 10 10 4 1 0 5
0 0 0 0 0 0 0 0 0 0 0 0 0 0 0 0 0 0 0 0 0 0 0 0 0 0 0 0 0 0 0 0 0 2 11 11 15 10 7 8 15 14 8
0 0 0 0 0 0 0 0 0 0 0 0 0 0 0 0 0 0 0 0 0 0 0 0 0 0 0 0 0 0 0 0 0 3 7 12 7 3 4 13 20 30 29
0 0 0 0 0 0 0 0 0 0 0 0 0 0 0 0 0 0 0 0 0 0 0 0 0 0 0 0 0 0 0 0 0 0 0 0 3 9 18 28 36 44 54
0 0 0 0 0 0 0 0 0 0 0 0 0 0 0 0 0 0 0 0 0 0 0 0 0 0 0 0 0 0 0 0 0 0 0 5 12 22 27 27 28 35 38
0 0 0 0 0 0 0 0 0 0 0 0 0 0 0 0 0 0 0 0 0 0 0 0 0 0 0 0 0 0 0 0 0 0 0 0 4 12 26 37 40 44 45
0 0 0 0 0 0 0 0 0 0 0 0 0 0 0 0 0 0 0 0 0 0 0 0 0 0 0 0 0 0 0 0 0 0 0 1 8 19 33 37 43 48 45
0 0 0 0 0 0 0 0 0 0 0 0 0 0 0 0 0 0 0 0 0 0 0 0 0 0 0 0 0 0 0 0 0 0 0 0 11 37 53 55 47 39 32
0 0 0 0 0 0 0 0 0 0 0 0 0 0 0 0 0 0 0 0 0 0 0 0 0 0 0 0 0 0 0 0 0 0 0 0 2 15 26 24 17 16 26
0 0 0 0 0 0 0 0 0 0 0 0 0 0 0 0 0 0 0 0 0 17 0 0 0 0 0 0 0 0 0 0 0 0 0 0 0 1 7 16 23 28 35
0 0 0 0 0 0 0 0 0 0 0 0 0 0 0 0 0 0 0 0 21 1 0 0 0 0 0 0 0 0 0 0 0 0 0 0 2 13 15 22 37 44 35
0 0 0 0 0 0 0 0 0 0 0 0 0 0 0 0 0 0 0 0 1 1 0 0 0 0 0 0 0 0 0 0 0 0 0 1 5 11 17 21 19 17 24
0 0 0 0 0 0 0 0 0 0 0 0 0 0 0 0 0 0 0 0 0 0 0 0 0 0 0 0 0 0 0 0 0 0 0 2 5 5 5 5 7 7 6
0 0 0 0 0 0 0 0 0 0 0 0 0 0 0 0 0 0 0 0 0 0 0 0 0 0 0 0 0 0 0 0 0 0 0 2 0 0 0 0 2 5 6
0 0 0 0 0 0 0 0 0 0 0 0 0 0 0 0 0 0 0 0 0 0 0 0 0 0 0 0 0 0 0 0 0 0 0 0 0 0 0 1 4 7 6
0 0 0 0 0 0 0 0 0 0 0 0 0 0 0 0 0 0 0 0 0 0 0 0 0 0 0 0 0 0 0 0 0 0 0 0 0 0 0 0 0 0 2
0 0 0 0 0 0 0 0 0 0 0 0 0 0 0 0 0 0 0 0 0 0 0 0 0 0 0 0 0 0 0 0 0 0 0 0 0 0 0 0 0 0 0
0 0 0 0 0 0 0 0 0 0 0 0 0 0 0 0 0 0 0 0 0 0 0 0 0 0 0 0 0 0 0 2 2 0 0 0 0 0 0 0 0 0 0
0 0 0 0 0 0 0 0 0 0 0 0 0 0 0 0 0 0 0 0 0 0 0 0 0 0 0 0 0 0 1 5 10 7 3 2 0 0 0 0 0 0 0
0 0 0 0 0 0 0 0 0 0 0 0 0 0 0 0 0 0 0 0 0 0 0 0 0 0 0 0 0 0 0 4 3 1 0 3 0 0 0 0 0 0 0
0 0 0 0 0 0 0 0 0 0 0 0 0 0 0 0 0 0 0 0 0 0 0 0 0 0 0 0 0 0 0 2 2 1 0 0 0 0 0 0 0 0 0
0 0 0 0 0 0 0 0 0 0 0 0 0 0 0 0 0 0 0 0 0 0 0 0 0 0 0 0 0 0 0 1 2 2 0 0 1 5 5 0 0 0 0
CIN
0 0 0 0 0 0 0 0 0 0 0 0 0 0 0 0 0 0 0 0 0 0 -8 -1 0 0 0 0 0 0 -1 0 0 0 0 0 0 0 0 0 0 0 0
0 0 0 0 0 0 0 0 0 0 0 0 0 0 0 0 0 0 0 0 0 -10 -12 -1 0 0 0 0 0 0 -1 -2 0 0 0 -1 0 0 0 0 0 0 0
0 0 0 0 0 0 0 0 0 0 0 0 0 0 0 0 0 0 0 0 0 0 0 0 0 0 0 -1 -4 0 -1 -1 0 -1 0 -1 -1 0 0 0 0 0 0
0 0 0 0 0 0 0 0 0 0 0 0 0 0 0 0 0 0 0 0 0 0 0 0 0 0 0 0 0 -1 -1 0 -1 -1 -5 -9 -7 0 0 0 0 0 0
0 0 0 0 0 0 0 0 0 0 0 0 0 0 0 0 0 0 0 0 0 0 0 0 0 0 0 0 0 0 0 -1 -1 -1 -1 -1 -1 0 0 0 0 0 0
0 0 0 0 0 0 0 0 0 0 0 0 0 0 0 0 0 0 0 0 0 0 0 0 0 0 0 0 0 0 0 0 0 0 -1 -1 0 0 0 0 0 0 0
0 0 0 0 0 0 0 0 0 0 0 0 0 0 0 0 0 0 0 0 0 0 0 0 0 0 0 0 0 0 0 0 0 0 0 0 0 0 0 0 0 0 0
0 0 0 0 0 0 0 0 0 0 0 0 0 0 0 0 0 0 0 0 0 0 0 0 0 0 0 0 0 0 0 0 0 0 0 -1 0 0 0 0 0 0 0
0 0 0 0 0 0 0 0 0 0 0 0 0 0 0 0 0 0 0 0 0 0 0 0 0 0 0 0 0 0 0 0 0 0 0 0 0 0 0 0 0 0 0
0 0 0 0 0 0 0 0 0 0 0 0 0 0 0 0 0 0 0 0 0 0 0 0 0 0 0 0 0 0 0 0 0 0 0 0 0 0 0 0 0 0 0
0 0 0 0 0 0 0 0 0 0 0 0 0 0 0 0 0 0 0 0 0 0 0 0 0 0 0 0 0 0 0 0 0 0 0 0 0 0 0 0 0 0 0
0 0 0 0 0 0 0 0 0 0 0 0 0 0 0 0 0 0 0 0 0 0 0 0 0 0 0 0 0 0 0 0 0 0 0 0 0 0 0 0 0 0 0
0 0 0 0 0 0 0 0 0 0 0 0 0 0 0 0 0 0 0 0 0 0 0 0 0 0 0 0 0 0 0 0 0 0 0 0 0 0 0 0 0 0 0
0 0 0 0 0 0 0 0 0 0 0 0 0 0 0 0 0 0 0 0 -1 -6 0 0 0 0 0 0 0 0 0 0 0 0 0 0 0 0 0 0 0 0 0
0 0 0 0 0 0 0 0 0 0 0 0 0 0 0 0 0 0 0 0 -1 0 0 0 0 0 0 0 0 0 0 0 0 0 0 0 0 0 0 0 0 0 0
0 0 0 0 0 0 0 0 0 0 0 0 0 0 0 0 0 0 0 0 0 0 0 0 0 0 0 0 0 0 0 0 0 0 0 0 0 0 0 0 0 0 0
0 0 0 0 0 0 0 0 0 0 0 0 0 0 0 0 0 0 0 0 0 0 0 0 0 0 0 0 0 0 0 0 0 0 0 0 0 0 0 0 0 0 0
0 0 0 0 0 0 0 0 0 0 0 0 0 0 0 0 0 0 0 0 0 0 0 0 0 0 0 0 0 0 0 0 0 0 0 0 0 0 0 0 0 0 0
0 0 0 0 0 0 0 0 0 0 0 0 0 0 0 0 0 0 0 0 0 0 0 0 0 0 0 0 0 0 0 0 0 0 0 0 0 0 0 0 0 0 0
0 0 0 0 0 0 0 0 0 0 0 0 0 0 0 0 0 0 0 0 0 0 0 0 0 0 0 0 0 0 0 0 0 0 0 0 0 0 0 0 0 0 0
0 0 0 0 0 0 0 0 0 0 0 0 0 0 0 0 0 0 0 0 0 0 0 0 0 0 0 0 0 0 0 0 0 0 0 0 0 0 0 0 0 0 0
0 0 0 0 0 0 0 0 0 0 0 0 0 0 0 0 0 0 0 0 0 0 0 0 0 0 0 0 0 0 0 0 0 0 0 0 0 0 0 0 0 0 0
0 0 0 0 0 0 0 0 0 0 0 0 0 0 0 0 0 0 0 0 0 0 0 0 0 0 0 0 0 0 0 0 0 0 0 0 0 0 0 0 0 0 0
0 0 0 0 0 0 0 0 0 0 0 0 0 0 0 0 0 0 0 0 0 0 0 0 0 0 0 0 0 0 0 0 0 0 0 0 0 0 0 0 0 0 0
0 0 0 0 0 0 0 0 0 0 0 0 0 0 0 0 0 0 0 0 0 0 0 0 0 0 0 0 0 0 0 0 0 0 0 0 0 0 0 0 0 0 0
0 0 0 0 0 0 0 0 0 0 0 0 0 0 0 0 0 0 0 0 0 0 0 0 0 0 0 0 0 0 0 0 0 0 0 0 0 0 0 0 0 0 0
Wind_Speed
4 4 4 4 4 4 5 5 5 5 6 6 5 6 6 6 5 3 3 10 9 6 5 5 6 6 7 8 9 9 9 11 11 10 11 12 14 15 17 18 19 20 20
5 4 4 4 4 5 4 5 5 4 4 4 5 5 5 5 5 6 4 4 10 8 4 3 5 5 6 6 7 6 8 8 9 9 10 11 12 14 15 17 18 19 19
5 5 4 4 4 4 7 5 5 4 5 3 6 5 5 5 4 5 4 4 4 12 12 7 4 3 3 6 3 3 4 6 8 5 7 8 10 12 14 15 16 17 18
6 5 5 4 4 4 4 4 3 4 4 4 3 4 3 3 4 5 4 4 3 4 8 11 7 6 4 4 3 4 7 6 8 9 5 9 11 13 13 15 15 15 16
6 5 5 4 5 4 4 3 4 3 2 3 3 3 2 2 3 3 5 5 5 4 3 7 8 8 4 3 3 6 9 9 10 9 9 9 10 11 14 15 17 18 18
6 6 5 5 5 4 4 3 4 4 2 1 1 2 2 1 2 3 4 3 4 5 4 5 4 4 8 7 6 7 8 10 12 13 12 11 11 13 15 15 15 17 19
6 6 5 5 4 4 4 3 3 3 2 1 2 2 2 2 3 3 3 3 4 4 4 3 2 2 2 7 7 8 9 11 13 14 13 14 15 15 15 16 17 17 18
6 6 6 5 5 5 5 4 3 2 1 1 3 1 3 3 3 2 2 1 1 2 3 2 3 3 2 2 2 5 6 8 10 12 14 14 15 16 17 19 20 20 21
6 7 6 6 6 5 4 4 2 2 2 2 3 3 2 2 2 2 1 2 1 1 2 3 1 1 0 2 3 5 7 7 10 14 17 17 17 19 20 21 22 22 22
6 7 7 7 6 4 5 3 3 4 3 2 2 2 1 3 2 4 3 3 3 3 4 3 3 3 2 2 5 7 10 10 12 15 14 16 18 19 20 21 23 23 24
6 7 7 6 6 4 4 4 2 5 4 3 3 1 0 1 1 2 3 4 3 3 3 3 3 3 4 4 3 5 9 9 10 10 12 15 17 20 22 24 25 26 26
5 6 7 6 5 5 4 3 5 4 3 2 2 2 3 3 3 3 3 4 3 3 3 3 3 2 2 4 6 10 11 11 12 13 15 17 19 21 24 26 27 28 29
4 6 6 6 5 4 6 4 4 4 3 2 3 3 2 3 3 3 2 3 3 2 2 2 1 2 2 3 5 12 14 16 17 19 20 22 23 23 24 26 27 26 26
8 10 7 7 6 6 5 5 2 2 2 3 4 5 3 4 3 3 3 3 3 3 1 4 1 2 1 2 7 14 7 14 18 20 20 21 21 22 22 22 23 24 25
9 8 7 7 5 6 5 5 3 2 4 4 5 5 4 4 3 3 3 3 2 4 5 3 2 1 1 2 6 6 5 14 18 18 19 19 20 19 21 22 23 23 24
10 8 7 7 6 6 5 5 4 4 5 4 4 5 4 3 4 3 3 3 4 4 4 3 3 2 2 4 6 6 7 16 16 18 17 18 20 21 21 21 23 23 26
9 7 10 8 8 7 6 5 5 5 6 5 4 5 6 4 3 3 3 3 3 3 4 2 2 2 3 5 6 6 7 7 7 17 18 20 20 22 23 24 24 25 24
8 7 5 7 6 5 5 6 6 6 7 6 6 6 6 3 5 4 3 5 4 3 3 5 2 2 5 4 5 7 7 8 7 14 20 22 22 21 20 20 20 22 25
5 5 5 6 5 6 5 6 7 6 6 6 6 6 6 6 5 3 4 4 3 3 3 3 3 2 3 2 5 5 7 8 8 17 20 20 19 19 20 21 22 22 24
6 5 4 2 3 2 4 6 6 6 6 6 6 7 6 7 7 6 5 5 4 3 2 3 3 4 3 3 4 5 8 6 9 10 13 13 17 19 20 21 21 21 21
6 5 4 3 7 5 6 7 6 7 6 6 6 6 6 8 11 8 4 5 4 3 3 3 4 4 5 4 6 6 8 9 9 8 7 7 9 9 10 14 16 19 18
7 6 7 4 4 5 10 12 7 6 7 7 7 6 6 8 8 10 12 10 8 5 4 2 3 5 6 5 4 5 7 8 8 3 6 11 7 9 9 8 17 19 20
6 6 2 4 6 8 11 11 11 6 6 7 7 5 5 5 7 5 7 8 9 10 8 4 5 5 4 4 5 7 8 9 10 8 9 12 7 10 9 10 19 19 19
2 3 3 4 7 6 9 10 10 6 6 7 7 7 6 7 7 6 6 5 6 5 6 5 6 6 6 7 6 7 8 10 9 7 8 10 8 9 10 11 20 17 15
3 3 5 6 5 7 10 11 7 5 6 7 6 7 7 7 11 14 7 7 6 6 7 11 12 12 13 12 10 4 6 7 9 8 7 6 5 11 8 9 7 11 12
4 4 5 5 7 6 10 10 7 3 5 6 5 7 13 11 13 14 9 8 7 7 4 4 4 7 9 8 12 5 5 6 7 7 1 5 9 6 7 2 3 5 6
Wind_Direction
135 118 107 99 94 93 85 85 81 79 68 59 60 64 55 41 36 17 7 11 4 348 320 166 145 116 93 81 63 54 57 52 43 59 50 45 40 31 25 18 12 8 5
129 119 107 95 84 88 92 91 87 82 82 85 68 54 64 55 40 28 18 10 19 12 343 136 145 131 124 95 68 66 60 47 36 51 45 33 24 22 17 11 4 360 358
123 114 107 99 108 101 101 94 83 83 78 66 64 51 61 57 58 43 25 25 31 44 50 75 120 120 116 111 69 38 98 43 27 52 3 11 10 5 4 1 357 353 351
124 123 118 122 121 105 107 100 101 72 68 60 62 57 55 75 70 53 46 44 54 54 47 56 73 84 71 51 22 343 349 343 330 334 4 358 348 345 346 347 345 343 342
141 131 120 126 117 101 87 101 62 94 67 52 83 71 32 76 68 52 64 52 57 56 45 43 47 36 16 7 330 312 314 310 310 325 323 320 324 324 337 335 332 331 332
133 117 112 116 105 102 100 73 86 47 74 81 45 52 14 40 61 43 45 55 57 49 44 44 26 14 33 26 355 329 323 319 322 320 316 311 318 325 324 320 320 321 320
123 125 114 110 112 105 98 106 109 88 36 9 81 347 344 352 23 41 19 36 50 34 25 44 49 28 13 21 5 341 329 319 317 315 310 313 315 313 311 308 308 309 314
127 117 123 125 115 102 86 67 77 131 136 35 135 141 20 337 339 32 7 1 20 8 10 42 59 40 26 27 352 21 351 337 322 311 307 303 300 300 300 301 304 309 311
124 124 119 114 107 115 115 109 143 175 148 91 64 132 53 256 305 313 326 260 187 299 296 291 108 65 89 342 340 328 323 319 316 310 301 293 295 297 298 302 305 307 308
122 123 118 114 113 118 112 135 164 157 102 80 49 66 110 149 223 323 339 316 321 285 265 271 285 282 276 290 308 314 324 320 305 294 295 297 296 297 299 300 302 301 302
112 115 121 116 112 120 131 135 120 68 88 121 144 177 37 42 153 213 285 305 326 272 263 269 289 317 347 349 327 312 333 6 343 322 311 302 298 297 298 298 299 299 300
127 123 122 126 133 124 113 114 97 100 121 119 138 173 187 187 216 207 237 255 243 296 310 303 284 8 9 15 7 4 352 343 327 319 309 300 294 292 291 292 293 295 295
142 151 148 146 149 127 132 142 121 133 149 174 186 209 216 223 190 210 189 261 254 246 267 265 145 74 72 18 349 337 328 322 312 309 304 299 296 293 292 290 289 289 288
164 169 153 146 154 165 140 140 143 121 163 204 210 215 228 238 201 199 197 191 278 266 228 267 240 140 85 342 329 328 314 316 311 306 301 301 298 293 290 290 289 287 288
165 158 163 155 172 175 151 129 141 212 205 203 219 224 219 244 233 227 206 189 231 294 284 251 236 166 254 330 316 308 305 307 304 305 300 295 294 295 294 289 290 291 291
157 170 169 166 167 170 150 156 189 210 198 221 223 229 235 238 240 207 201 201 208 233 269 214 230 232 278 299 290 305 293 302 303 298 294 297 296 291 291 291 290 289 287
165 168 170 168 180 176 171 185 205 195 211 224 231 224 242 222 223 206 195 187 198 187 232 258 229 246 264 263 283 288 288 284 282 294 295 294 291 292 291 287 286 284 286
182 162 152 167 190 164 185 203 211 212 214 221 225 219 234 209 225 213 200 216 214 198 200 265 235 241 234 247 263 288 294 300 288 291 292 293 295 291 288 290 287 281 279
102 117 155 177 177 198 203 222 220 224 223 221 217 211 222 208 223 211 212 220 215 221 212 230 277 248 269 269 298 292 288 288 286 293 295 294 294 293 292 291 289 289 283
144 159 178 128 170 252 274 252 232 230 229 221 217 211 222 211 216 215 212 215 208 216 217 236 264 276 270 284 293 303 306 300 297 292 289 284 287 296 296 296 294 289 285
113 106 85 56 19 308 273 262 237 226 215 221 220 220 219 224 225 207 185 214 195 207 221 243 268 273 287 298 301 307 296 300 300 278 281 295 296 298 290 293 288 289 289
108 85 41 23 297 283 271 268 238 217 212 210 215 223 225 229 235 232 221 210 195 191 212 212 249 272 282 279 279 285 291 308 318 264 308 301 295 289 286 283 284 289 288
60 53 55 276 288 269 272 274 247 219 207 214 214 213 220 222 222 225 223 203 206 219 220 202 246 250 261 257 280 287 289 287 290 302 296 294 306 290 291 286 288 288 289
65 243 251 257 259 271 286 290 262 228 219 220 211 209 209 219 215 198 199 211 220 227 239 245 221 241 242 259 251 275 286 290 285 286 278 284 303 291 296 291 293 289 281
231 237 235 247 264 280 295 298 290 239 238 235 220 211 212 218 223 219 199 219 225 237 245 259 242 245 260 281 292 298 297 305 303 306 289 264 294 305 294 285 290 290 264
251 251 264 254 267 274 283 295 289 205 243 245 232 225 230 220 222 219 204 206 223 236 225 243 257 265 269 271 288 275 283 288 298 307 254 318 307 309 312 260 287 293 295